ISS - Orbit

View from above orbital plane
View from above orbital plane
View from above satellite
View from above satellite

Ground track
Ground track

The orbit data is extracted from the following two-line orbital elements,

1 25544U 98067A   13142.21706487  .00014675  00000-0  26048-3 0  8586
2 25544 051.6489 237.1067 0009546 343.8246 103.4341 15.50414840830677
Epoch (UTC): 22 May 2013 05:12:34
Eccentricity: 0.0009546
inclination: 51.6489°
perigee height: 409 km
apogee height: 422 km
right ascension of ascending node: 237.1067°
argument of perigee: 343.8246°
revolutions per day: 15.50414840
mean anomaly at epoch: 103.4341°
orbit number at epoch: 83067

The dashed part of the orbit path shows where the satellite is in the earth's shadow,  

Developed and maintained by Chris Peat, Heavens-Above GmbH. Please read the updated FAQ before sending e-mail. Imprint. DLR